Location: Unspecified
(0.0000°N, 0.0000°E)
Time: 11:43:49
(UTC+00:00)

deb r/b Ablestar - Pass Details

Date: 14 April 2026
Orbit: 834 x 1371 km, 65.9° (Epoch: 10 May)

Event Time Altitude Azimuth Distance (km) Brightness Sun altitude
Rises 18:13:26 0° 312° (NW) 3,870 ? -3.3°
Reaches altitude 10° 18:16:57 10° 296° (WNW) 2,814 ? -4.1°
Maximum altitude 18:21:30 20° 252° (WSW) 2,064 ? -5.2°
Drops below altitude 10° 18:25:45 10° 206° (SSW) 2,591 ? -6.3°
Sets 18:28:51 0° 189° (S) 3,470 ? -7.1°
